sat.trackr.live / text

‹ back to catalog

STARLINK-30286

NORAD 57647 · 2023-122R

PAYLOAD ACTIVE UNKNOWN

§ Identity

Operator
Country
US
Launch date
2023-08-17
Launch site
AFETR
Launch vehicle
Mass (kg)
RCS (m²)

Purposes: comms

External: N2YO · Heavens-Above · Gunter

§ Orbital elements

Epoch: 2026-09-19T18:58:30.559872Z

Period
94.27 min
Inclination
43.0038°
Eccentricity
0.0001473
Mean motion
15.27576155 rev/d
Perigee alt
482.0 km
Apogee alt
484.1 km
Semi-major
6,861.2 km
B*
3.4611e-7
RAAN
76.1985°
Arg perigee
277.2144°
Mean anomaly
82.8540°
Rev number
17,189

§ Raw data

STARLINK-302861 57647U 23122R   26262.79063148 -.00000253  00000+0  34611-6 0  99962 57647  43.0038  76.1985 0001473 277.2144  82.8540 15.27576155171894

JSON: /api/v1/satellites/57647 · /tle

For live sub-satellite position, see the globe view (requires WebGL).

§ Visibility from observer

Set your observer location to see the next 7 days of passes ≥ 10°. The values pass through the URL so the page stays shareable.

No JS? Fill the form by hand. The geolocation button needs JavaScript.